Regional Weather Roundup
Issued by NWS Kansas City/Pleasant Hill, MO

Home | Current Version | Previous Version | Graphics & Text | Print | Product List | Glossary Off
Versions: 1 2 3 4 5 6 7 8 9 10 11 12 13 14 15 16 17 18 19 20 21 22 23 24 25 26 27 28 29 30 31 32 33 34 35 36 37 38 39 40 41 42 43 44 45 46 47 48 49 50

000
ASUS43 KEAX 021910
RWREAX

WEATHER ROUNDUP FOR EASTERN KANSAS AND NORTHWEST MISSOURI
NATIONAL WEATHER SERVICE KANSAS CITY/PLEASANT HILL MO
200 PM CDT SUN AUG 02 2015

KSZ040-057-103>105-MOZ028-029-037-043-022000-
...KANSAS CITY METROPOLITAN AREA...

CITY           SKY/WX    TMP DP  RH WIND       PRES   REMARKS
K.C. INTL      MOSUNNY   89  70  53 W10       29.90F HX  94
K.C. DOWNTOWN  SUNNY     92  67  43 SW12      29.89S HX  95
LEES SUMMIT    SUNNY     91  66  43 SW14      29.91F HX  93
OLATHE - IXD   SUNNY     91  66  43 W13       29.92F HX  93
OLATHE - OJC   SUNNY     90  65  43 SW8G20    29.91F HX  92
LAWRENCE       SUNNY     91  67  44 W14G21    29.89F HX  94

$$

MOZ001>008-011>017-020>025-030>033-038>040-044>046-053-054-022000-
...NORTHERN AND CENTRAL MISSOURI...

CITY           SKY/WX    TMP DP  RH WIND       PRES   REMARKS
ST. JOSEPH     SUNNY     88  73  61 W9G20     29.87F HX  95
MOSBY          CLEAR     90  64  43 W10G16    29.88F HX  91
WARRENSBURG    SUNNY     90  64  43 W13       29.90F HX  91
WHITEMAN AFB   SUNNY     91  67  44 SW14      29.90F HX  94
CLINTON        SUNNY     91  66  43 SW10G16   29.92F HX  94
SEDALIA        SUNNY     90  68  48 SW9       29.93S HX  94
WARSAW         NOT AVBL
CHILLICOTHE      N/A     90  72  55 SW9       29.88S HX  97
KIRKSVILLE     MOSUNNY   90  73  57 SW9       29.87F HX  98

$$

MOZ041-047>049-056>058-063>065-088>090-097-022000-
...EASTERN AND SOUTHERN MISSOURI...

CITY           SKY/WX    TMP DP  RH WIND       PRES   REMARKS
ST. LOUIS INTL MOSUNNY   94  68  42 W12       29.90F HX  98
SPIRIT OF STL  MOSUNNY   92  71  50 SW12      29.89F HX  98
COLUMBIA       SUNNY     89  70  53 SW13      29.92F HX  94
JEFFERSON CITY SUNNY     90  66  45 SW15      29.90F HX  92
ROLLA          SUNNY     90  68  48 SW10      29.93F HX  94
OSAGE BEACH    SUNNY     91  64  40 W9        29.94S HX  93
SPRINGFIELD    SUNNY     92  61  35 W10       29.96F HX  92
BRANSON        PTSUNNY   91  63  38 SW8       29.99F HX  92
JOPLIN         PTSUNNY   93  63  36 S16G23    29.96F HX  94
WEST PLAINS    SUNNY     90  65  43 CALM      29.99F HX  92

$$

IAZ060-094-KSZ022-034>040-054-083-096-NEZ052-066-093-022000-
...KANSAS...SOUTHEAST NEBRASKA AND IOWA...

CITY           SKY/WX    TMP DP  RH WIND       PRES   REMARKS
TOPEKA         SUNNY     91  69  48 SW15      29.89F HX  96
MANHATTAN      SUNNY     93  69  45 SW10G17   29.87F HX  98
EMPORIA        SUNNY     90  67  46 SW14G21   29.92S HX  93
CHANUTE        SUNNY     92  64  39 SW14G21   29.92F HX  93
WICHITA        MOSUNNY   89  70  53 SW14      29.92F HX  94
OMAHA          MOSUNNY   96  71  44 W14       29.81S HX 103
LINCOLN        SUNNY     95  72  47 W13       29.85S HX 103
FALLS CITY     MOSUNNY   90  75  61 SW14      29.87S HX 100
LAMONI         SUNNY     89  75  63 SW20      29.85S HX  99
DES MOINES     MOSUNNY   93  72  50 W21G28    29.77F HX 101

$$



USA.gov is the U.S. government's official web portal to all federal, state and local government web resources and services.